Weather History for Hilton Head Island, SC

Change the Weather History Date:

Thursday, April 4, 2013

  Actual Average Record
Temperature  
Mean Temperature 56 °F -  
Max Temperature 62 °F 74 °F 90 °F (1963)
Min Temperature 50 °F 52 °F 33 °F (1971)
Degree Days  
Heating Degree Days 8    
Growing Degree Days 6 (Base 50)    
Moisture  
Dew Point 55 °F    
Average Humidity 98    
Maximum Humidity 100    
Minimum Humidity 88    
Precipitation  
Precipitation 0.12 in - - ()
Sea Level Pressure  
Sea Level Pressure 30.04 in    
Wind  
Wind Speed 11 mph (NNE)    
Max Wind Speed 15 mph    
Max Gust Speed 25 mph    
Visibility 6 miles    
Events Rain    
Averages and records for this station are not official NWS values.
T = Trace of Precipitation, MM = Missing Value Source: NWS Daily Summary

Daily Weather History Graph

Daily Weather History Graph

Search for Another Location

Airport:

Trip Planner

Search our weather history database for the weather conditions in past years. The results will help you decide how hot, cold, wet, or windy it might be!

Date:

Astronomy

Apr. 04, 2013 Rise Set
Actual Time 7:06 AM EDT 7:44 PM EDT
Civil Twilight 6:42 AM EDT 8:09 PM EDT
Nautical Twilight 6:13 AM EDT 8:38 PM EDT
Astronomical Twilight 5:43 AM EDT 9:08 PM EDT
Moon 3:13 AM EDT (4/4) 2:19 PM EDT (4/4)
Length of Visible Light 13h 27m
Length of Day
12h 37m
Waning Crescent, 34% of the Moon is Illuminated
Apr 4
Waning Crescent
Apr 10
New
Apr 18
First Quarter
Apr 25
Full
May 2
Last Quarter

Hourly Weather History & Observations

Time (EDT) Temp. Dew Point Humidity Pressure Visibility Wind Dir Wind Speed Gust Speed Precip Events Conditions
12:15 AM 55.4 °F 55.4 °F 100% 30.20 in 7.0 mi NNE 11.5 mph 18.4 mph 0.00 in Rain Light Rain
12:35 AM 53.6 °F 53.6 °F 100% 30.20 in 7.0 mi NNE 10.4 mph 20.7 mph 0.01 in Rain Light Rain
12:55 AM 53.6 °F 53.6 °F 100% 30.20 in 8.0 mi NNE 13.8 mph 21.9 mph 0.01 in Rain Light Rain
1:15 AM 55.4 °F 55.4 °F 100% 30.19 in 10.0 mi NNE 12.7 mph 17.3 mph 0.00 in Rain Light Rain
1:35 AM 55.4 °F 55.4 °F 100% 30.18 in 9.0 mi NE 15.0 mph 23.0 mph 0.00 in   Light Drizzle
1:55 AM 55.4 °F 55.4 °F 100% 30.17 in 10.0 mi NNE 13.8 mph 20.7 mph 0.00 in   Scattered Clouds
2:15 AM 55.4 °F 55.4 °F 100% 30.17 in 10.0 mi NE 13.8 mph 20.7 mph 0.00 in   Light Drizzle
2:35 AM 55.4 °F 55.4 °F 100% 30.16 in 9.0 mi NE 13.8 mph 20.7 mph 0.00 in   Light Drizzle
2:55 AM 55.4 °F 55.4 °F 100% 30.15 in 10.0 mi NNE 15.0 mph 24.2 mph 0.00 in   Light Drizzle
3:15 AM 55.4 °F 55.4 °F 100% 30.14 in 5.0 mi NE 13.8 mph 25.3 mph 0.00 in Rain Light Rain
3:35 AM 55.4 °F 55.4 °F 100% 30.14 in 5.0 mi NE 13.8 mph 21.9 mph 0.01 in   Light Drizzle
3:55 AM 55.4 °F 55.4 °F 100% 30.12 in 3.0 mi NE 10.4 mph 24.2 mph 0.04 in Rain Rain
4:15 AM 55.4 °F 55.4 °F 100% 30.11 in 3.0 mi NE 11.5 mph 19.6 mph 0.03 in Rain Rain
4:35 AM 55.4 °F 55.4 °F 100% 30.11 in 3.0 mi NE 13.8 mph 20.7 mph 0.05 in   Drizzle
4:55 AM 55.4 °F 55.4 °F 100% 30.10 in 4.0 mi NE 12.7 mph 21.9 mph 0.06 in   Heavy Drizzle
5:15 AM 55.4 °F 55.4 °F 100% 30.10 in 9.0 mi NE 9.2 mph 20.7 mph 0.00 in   Mostly Cloudy
5:35 AM 55.4 °F 55.4 °F 100% 30.10 in 8.0 mi NNE 12.7 mph 20.7 mph 0.00 in   Mostly Cloudy
5:55 AM 55.4 °F 55.4 °F 100% 30.10 in 4.0 mi NE 12.7 mph 25.3 mph 0.01 in   Light Drizzle
6:15 AM 55.4 °F 55.4 °F 100% 30.09 in 5.0 mi NE 15.0 mph 21.9 mph 0.00 in   Light Drizzle
6:35 AM 55.4 °F 55.4 °F 100% 30.09 in 7.0 mi NNE 13.8 mph 21.9 mph 0.00 in   Overcast
6:50 AM 55.4 °F 53.6 °F 94% 30.08 in 5.0 mi North 11.5 mph 20.7 mph N/A Rain Light Rain
7:50 AM 57.2 °F 53.6 °F 88% 30.08 in 5.0 mi NNE 13.8 mph 23.0 mph N/A   Overcast
8:50 AM 57.2 °F 55.4 °F 94% 30.06 in 3.0 mi NNE 13.8 mph 23.0 mph N/A Rain Light Rain
9:50 AM 55.4 °F 53.6 °F 94% 30.06 in 3.0 mi NNE 11.5 mph 20.7 mph N/A Rain Light Rain
10:50 AM 57.2 °F 55.4 °F 94% 30.04 in 2.0 mi NE 11.5 mph 23.0 mph N/A   Drizzle
11:58 AM 59.0 °F 57.2 °F 94% 30.02 in 1.5 mi NE 9.2 mph 16.1 mph N/A Rain Rain
12:50 PM 60.8 °F 59.0 °F 94% 29.98 in 1.5 mi NE 9.2 mph 19.6 mph N/A Rain Rain
1:50 PM 60.8 °F 60.8 °F 100% 29.94 in 2.0 mi NE 8.1 mph - N/A Rain Rain
2:50 PM 62.6 °F 60.8 °F 94% 29.91 in 5.0 mi ENE 5.8 mph - N/A   Overcast
3:55 PM 62.6 °F 60.8 °F 94% 29.87 in 6.0 mi NNW 4.6 mph - N/A   Overcast
4:53 PM 60.8 °F 60.8 °F 100% 29.87 in 4.0 mi NW 4.6 mph - N/A   Overcast
5:50 PM 60.8 °F 59.0 °F 94% 29.87 in 3.0 mi NNW 3.5 mph - N/A   Overcast
6:50 PM 59.0 °F 59.0 °F 100% 29.87 in 5.0 mi NW 8.1 mph - N/A   Overcast
7:50 PM 57.2 °F 55.4 °F 94% 29.89 in 9.0 mi NW 11.5 mph - N/A   Overcast
9:15 PM 53.6 °F 53.6 °F 100% 29.91 in 9.0 mi NNW 5.8 mph - 0.00 in   Overcast
9:35 PM 53.6 °F 53.6 °F 100% 29.92 in 5.0 mi NNW 9.2 mph - 0.00 in   Overcast
9:55 PM 53.6 °F 53.6 °F 100% 29.92 in 5.0 mi North 4.6 mph - 0.00 in   Overcast
10:15 PM 53.6 °F 53.6 °F 100% 29.93 in 8.0 mi NNW 6.9 mph - 0.00 in   Overcast
10:35 PM 51.8 °F 51.8 °F 100% 29.94 in 10.0 mi NNW 8.1 mph - 0.00 in   Overcast
10:55 PM 51.8 °F 51.8 °F 100% 29.94 in 10.0 mi NNW 5.8 mph - 0.00 in   Overcast
11:15 PM 51.8 °F 51.8 °F 100% 29.94 in 4.0 mi NW 6.9 mph - 0.00 in   Overcast
11:35 PM 51.8 °F 51.8 °F 100% 29.94 in 10.0 mi NW 5.8 mph - 0.00 in   Overcast
11:55 PM 50.0 °F 50.0 °F 100% 29.94 in 5.0 mi NNW 9.2 mph 16.1 mph 0.00 in   Overcast